This is the latest recevied weather packets stored in our database for station/object IT9CYW-10. If no packets are shown the sender has not sent any weather packets the latest 10 day(s).
| Time | Temp. | Humidity | Pressure | Rain* | Wind** | Luminosity | Snow |
|---|---|---|---|---|---|---|---|
| 1777588090 | 13.89° C | 93% | 997.9 hPa | - | - | 0 W/m² | - |
| 1777587190 | 13.89° C | 93% | 998 hPa | - | - | 0 W/m² | - |
| 1777586290 | 13.89° C | 92% | 998 hPa | - | - | 0 W/m² | - |
| 1777585390 | 14.44° C | 92% | 997.9 hPa | - | - | 0 W/m² | - |
| 1777584490 | 14.44° C | 92% | 998 hPa | - | - | 0 W/m² | - |
| 1777582690 | 15° C | 91% | 998 hPa | - | - | 0 W/m² | - |
| 1777581782 | 15° C | 91% | 998.2 hPa | - | - | 0 W/m² | - |
| 1777580882 | 15.56° C | 91% | 998 hPa | - | - | 0 W/m² | - |
| 1777579982 | 15.56° C | 90% | 998.2 hPa | - | - | 0 W/m² | - |
| 1777579082 | 16.11° C | 89% | 998.2 hPa | - | - | 0 W/m² | - |
| 1777578182 | 16.11° C | 89% | 998 hPa | - | - | 0 W/m² | - |
| 1777577282 | 16.67° C | 88% | 998 hPa | - | - | 0 W/m² | - |
| 1777576382 | 16.67° C | 87% | 997.5 hPa | - | - | 0 W/m² | - |
| 1777575482 | 16.67° C | 88% | 997.5 hPa | - | - | 0 W/m² | - |
| 1777574581 | 16.67° C | 88% | 997.4 hPa | - | - | 0 W/m² | - |
| 1777573681 | 16.67° C | 86% | 997 hPa | - | - | 0 W/m² | - |
| 1777572781 | 16.67° C | 85% | 997 hPa | - | - | 0 W/m² | - |
| 1777571881 | 17.78° C | 83% | 996.9 hPa | - | - | 2 W/m² | - |
| 1777570981 | 17.78° C | 83% | 996.5 hPa | - | - | 8 W/m² | - |
| 1777569187 | 18.33° C | 77% | 996.5 hPa | - | - | 29 W/m² | - |
| 1777568287 | 19.44° C | 76% | 996.5 hPa | - | - | 43 W/m² | - |
| 1777567387 | 20° C | 74% | 996.5 hPa | - | - | 53 W/m² | - |
| 1777566486 | 20° C | 72% | 996.4 hPa | - | - | 61 W/m² | - |
| 1777565586 | 20° C | 73% | 996.5 hPa | - | - | 72 W/m² | - |
| 1777564686 | 20.56° C | 72% | 996.5 hPa | - | - | 84 W/m² | - |
* Rain since midnight (hover to see other rain measurements)
** Current wind speed in m/s (hover to see current wind gust speed)